Temp: 10.5°C   Baro: 1024.0mb
  Wind: 4.0mph   Dir: NNE (31°)
  Rain: 0.0mm (0.0mm/hr)
  Solar: 149W/m2  Hum: 64%

  • No weather warnings have been issued for the Bath area at this time.

10 day detailed forecast for Bath, United Kingdom

Last update: 30.05.2020 01:19
Next update: 30.05.2020 07:26
Latitude: 51.38° N
Longitude: 2.36° W
meteogram
    Temperature Precipitation Pressure Wind Humidity Clouds Fog
 03:59     20:14 Today
07:00   1023.8 mb 7 mph 58% 0%
08:00   1023.5 mb 7 mph 56% 0%
09:00   1023.2 mb 7 mph 51% 0%
10:00   1022.8 mb 7 mph 46% 0%
11:00   1022.4 mb 7 mph 41% 0%
12:00   1021.9 mb 8 mph 37% 0%
13:00   1021.3 mb 8 mph 36% 0%
14:00   1021.0 mb 8 mph 35% 0%
15:00   1020.3 mb 8 mph 35% 8%
16:00   1019.7 mb 6 mph 31% 13%
17:00   1019.4 mb 11 mph 30% 23%
18:00   1019.7 mb 12 mph 33% 17%
19:00   1019.9 mb 10 mph 34% 7%
20:00   1020.4 mb 10 mph 37% 3%
21:00   1021.1 mb 10 mph 41% 1%
22:00   1021.5 mb 10 mph 47% 0%
23:00   1021.9 mb 10 mph 50% 0%
 03:58     20:15 Tomorrow
00:00   1022.1 mb 9 mph 54% 0%
01:00   1022.0 mb 8 mph 58% 0%
02:00   1021.8 mb 7 mph 62% 0%
03:00   1021.5 mb 8 mph 64% 0%
04:00   1021.5 mb 8 mph 65% 0%
05:00   1021.7 mb 8 mph 65% 0%
06:00   1021.9 mb 8 mph 61% 0%
07:00   1022.1 mb 9 mph 56% 0%
08:00   1022.1 mb 9 mph 51% 0%
09:00   1022.0 mb 9 mph 45% 0%
10:00   1021.8 mb 9 mph 39% 0%
11:00   1021.6 mb 10 mph 34% 0%
12:00   1021.4 mb 11 mph 30% 56%
13:00   1021.1 mb 11 mph 28% 86%
14:00   1020.9 mb 10 mph 27% 62%
15:00   1020.6 mb 10 mph 25% 98%
16:00   1020.4 mb 12 mph 26% 98%
17:00   1020.6 mb 10 mph 32% 81%
18:00   1021.0 mb 11 mph 33% 22%
19:00   1021.4 mb 9 mph 36% 13%
20:00   1022.3 mb 11 mph 38% 0%
21:00   1023.1 mb 11 mph 40% 0%
22:00   1023.6 mb 10 mph 41% 0%
23:00   1023.8 mb 9 mph 45% 0%
 03:58     20:16 Monday 01.06.2020
00:00   1023.8 mb 9 mph 50% 0%
01:00   1023.6 mb 7 mph 56% 0%
02:00   1023.3 mb 7 mph 60% 0%
03:00   1023.3 mb 8 mph 62% 0%
04:00   1023.3 mb 8 mph 64% 0%
05:00   1023.6 mb 9 mph 64% 8%
06:00   1023.9 mb 9 mph 63% 17%
07:00   1024.0 mb 9 mph 62% 0%
08:00   1024.0 mb 9 mph 57% 4%
09:00   1023.8 mb 9 mph 52% 0%
10:00   1023.7 mb 10 mph 46% 0%
11:00   1023.4 mb 10 mph 38% 2%
12:00   1023.1 mb 10 mph 33% 27%
13:00   1022.6 mb 9 mph 31% 95%
14:00   1022.4 mb 8 mph 31% 98%
15:00   1022.1 mb 7 mph 32% 97%
16:00   1021.8 mb 7 mph 32% 97%
17:00   1021.6 mb 7 mph 33% 84%
18:00   1021.5 mb 8 mph 34% 73%
 03:57     20:17 Tuesday 02.06.2020
00:00   1022.6 mb 6 mph 61% 0%
06:00   1021.4 mb 4 mph 69% 1%
12:00   1018.6 mb 1 mph 38% 26%
18:00   1013.7 mb 9 mph 37% 45%
 03:56     20:18 Wednesday 03.06.2020
00:00   1010.7 mb 6 mph 60% 98%
06:00 0.2 mm 1007.7 mb 7 mph 80% 95%
12:00 1.0 mm 1006.4 mb 10 mph 55% 59%
18:00 0.6 mm 1005.8 mb 17 mph 56% 48%
 03:56     20:19 Thursday 04.06.2020
00:00   1009.0 mb 13 mph 76% 88%
06:00   1009.5 mb 13 mph 77% 91%
12:00   1009.8 mb 7 mph 48% 16%
18:00   1007.8 mb 10 mph 40% 20%
 03:55     20:20 Friday 05.06.2020
00:00   1011.1 mb 5 mph 54% 79%
06:00   1010.8 mb 4 mph 75% 23%
12:00   1009.0 mb 8 mph 42% 16%
18:00   1006.3 mb 12 mph 52% 0%
 03:55     20:21 Saturday 06.06.2020
00:00   1007.1 mb 5 mph 77% 0%
06:00   1007.6 mb 5 mph 78% 100%
12:00   1007.6 mb 10 mph 48% 100%
18:00 0.1 mm 1009.4 mb 11 mph 43% 97%
 03:54     20:22 Sunday 07.06.2020
00:00   1014.2 mb 10 mph 59% 27%
06:00   1016.2 mb 6 mph 62% 48%
12:00   1017.0 mb 6 mph 38% 89%
18:00   1016.4 mb 7 mph 37% 98%
 03:54     20:23 Monday 08.06.2020
00:00   1018.2 mb 8 mph 54% 23%
06:00   1019.9 mb 6 mph 69% 0%